CW0962 Weather Reports


Display with metric or nautical units.
time (UTC)temp
F
wind
direction
speed
MPH
gust
MPH
rain 1hr
in
rain 24hr
in
rain mn
in
humidity
%
barometer
mb
20190420070459 64 42 6.0 30.0 0.00 0.06 0.04 86 1008.6
20190420070003 64 221 15.0 30.0 0.00 0.06 0.04 86 1008.7
20190420065500 65 116 9.0 30.0 0.00 0.06 0.04 87 1008.5
20190420065000 64 170 13.0 26.0 0.00 0.06 0.04 87 1008.5
20190420064502 64 247 23.0 26.0 0.00 0.06 0.04 87 1008.5
20190420064002 64 229 7.0 23.0 0.00 0.06 0.04 86 1008.5
20190420063459 64 210 6.0 24.0 0.00 0.06 0.04 86 1008.7
20190420063000 64 130 12.0 24.0 0.00 0.06 0.04 86 1008.8
20190420062501 64 214 13.0 23.0 0.00 0.06 0.04 86 1009.0
20190420062000 64 173 15.0 23.0 0.00 0.06 0.04 86 1008.9
20190420061459 64 173 9.0 29.0 0.00 0.06 0.04 86 1008.9
20190420061003 64 210 13.0 29.0 0.00 0.06 0.04 86 1008.8
20190420060501 64 200 14.0 27.0 0.00 0.06 0.04 86 1008.8
20190420060000 64 214 24.0 24.0 0.01 0.06 0.04 86 1008.7
20190420055501 64 181 4.0 24.0 0.01 0.06 0.04 86 1008.8
20190420055000 64 167 13.0 30.0 0.01 0.06 0.04 86 1008.9
20190420054459 64 229 20.0 30.0 0.02 0.06 0.04 86 1008.7
20190420054002 64 211 10.0 27.0 0.02 0.06 0.04 86 1008.9
20190420053501 64 168 21.0 34.0 0.02 0.06 0.04 86 1009.0
20190420053002 64 166 16.0 34.0 0.02 0.06 0.04 86 1008.9
20190420052459 64 246 5.0 29.0 0.02 0.06 0.04 86 1009.0
20190420052003 64 234 15.0 29.0 0.02 0.06 0.04 86 1009.1
20190420051459 64 224 15.0 27.0 0.02 0.06 0.04 86 1009.1
20190420051002 64 203 8.0 25.0 0.04 0.06 0.04 86 1009.2
20190420050459 64 297 6.0 22.0 0.04 0.06 0.04 86 1009.2
20190420050003 64 154 8.0 27.0 0.03 0.05 0.03 86 1009.2
20190420045459 64 156 11.0 27.0 0.03 0.05 0.03 86 1009.2
20190420045002 64 194 5.0 24.0 0.03 0.05 0.03 86 1009.1
20190420044459 64 200 8.0 25.0 0.02 0.04 0.02 86 1009.2
20190420044001 64 157 7.0 25.0 0.02 0.04 0.02 86 1009.2
20190420043500 64 178 8.0 34.0 0.02 0.04 0.02 85 1009.2
20190420043000 64 154 19.0 34.0 0.02 0.04 0.02 85 1009.4
20190420042501 64 204 10.0 28.0 0.02 0.04 0.02 85 1009.5
20190420042002 64 175 9.0 28.0 0.02 0.04 0.02 85 1009.5
20190420041458 64 240 7.0 29.0 0.02 0.04 0.02 85 1009.5
20190420041002 64 235 10.0 30.0 0.00 0.02 0.00 85 1009.5
20190420040459 64 182 6.0 30.0 0.00 0.02 0.00 85 1009.6
20190420040006 64 109 13.0 30.0 0.00 0.02 0.00 85 1009.6
20190420035459 64 295 2.0 29.0 0.00 0.02 0.02 85 1009.7
20190420035002 64 244 9.0 20.0 0.00 0.02 0.02 84 1009.7
20190420034501 64 169 4.0 20.0 0.00 0.02 0.02 84 1009.8
20190420034001 64 189 6.0 18.0 0.00 0.02 0.02 84 1009.8
20190420033459 64 203 13.0 24.0 0.00 0.02 0.02 84 1009.8
20190420033000 64 223 1.0 24.0 0.00 0.02 0.02 84 1009.9
20190420032501 64 190 6.0 23.0 0.00 0.02 0.02 84 1010.0
20190420031959 64 180 6.0 23.0 0.00 0.02 0.02 84 1009.9
20190420031459 64 182 15.0 20.0 0.00 0.02 0.02 84 1009.9
20190420031006 64 168 15.0 22.0 0.00 0.02 0.02 84 1009.9
20190420030501 64 205 6.0 22.0 0.00 0.02 0.02 84 1009.9
20190420030000 64 164 5.0 22.0 0.00 0.02 0.02 84 1009.9
20190420025500 64 242 19.0 22.0 0.00 0.02 0.02 84 1009.8
20190420025002 65 73 5.0 16.0 0.00 0.02 0.02 84 1009.9
20190420024459 65 171 7.0 18.0 0.00 0.02 0.02 84 1009.9
20190420024003 65 166 16.0 22.0 0.00 0.02 0.02 84 1009.9
20190420023501 65 160 7.0 22.0 0.00 0.02 0.02 84 1010.0
20190420023001 65 182 9.0 23.0 0.00 0.02 0.02 84 1010.1
20190420022501 65 167 9.0 25.0 0.00 0.02 0.02 84 1010.1
20190420022000 65 263 4.0 29.0 0.00 0.02 0.02 84 1010.2
20190420021501 65 182 5.0 29.0 0.00 0.02 0.02 84 1010.2
20190420021002 65 158 19.0 26.0 0.00 0.02 0.02 84 1010.3
20190420020501 65 162 4.0 22.0 0.00 0.02 0.02 85 1010.2
20190420020000 65 194 16.0 23.0 0.00 0.02 0.02 84 1010.3
20190420015500 65 183 6.0 23.0 0.00 0.02 0.02 85 1010.3
20190420015003 64 161 4.0 22.0 0.00 0.02 0.02 85 1010.4
20190420014501 64 149 4.0 22.0 0.00 0.02 0.02 85 1010.3
20190420014002 64 180 7.0 18.0 0.00 0.02 0.02 85 1010.6
20190420013501 64 242 3.0 19.0 0.00 0.02 0.02 85 1010.6
20190420013002 64 116 1.0 20.0 0.00 0.02 0.02 85 1010.4
20190420012500 64 192 13.0 22.0 0.00 0.02 0.02 85 1010.6
20190420012003 64 205 10.0 22.0 0.00 0.02 0.02 85 1010.6
20190420011459 64 238 6.0 15.0 0.00 0.02 0.02 85 1010.6
20190420011000 64 200 2.0 16.0 0.00 0.02 0.02 85 1010.6
20190420010459 64 221 10.0 22.0 0.00 0.02 0.02 85 1010.6
20190420010000 64 196 4.0 22.0 0.00 0.02 0.02 85 1010.7
20190420005500 64 187 14.0 21.0 0.00 0.02 0.02 85 1010.5
20190420005002 63 248 7.0 21.0 0.00 0.02 0.02 85 1010.4
20190420004459 63 178 6.0 24.0 0.00 0.02 0.02 84 1010.5
20190420004000 63 222 14.0 25.0 0.00 0.02 0.02 84 1010.3
20190420003503 63 207 18.0 25.0 0.00 0.02 0.02 84 1010.4
20190420003001 63 198 14.0 23.0 0.00 0.02 0.02 84 1010.3
20190420002500 63 216 7.0 28.0 0.00 0.02 0.02 84 1010.3
20190420002001 63 215 12.0 28.0 0.00 0.02 0.02 84 1010.3
20190420001500 63 223 11.0 28.0 0.00 0.02 0.02 84 1010.2
20190420001000 63 157 6.0 26.0 0.00 0.02 0.02 84 1010.2
20190420000501 63 235 10.0 24.0 0.00 0.02 0.02 84 1010.0
20190420000032 63 169 4.0 19.0 0.00 0.02 0.02 84 1009.9
20190419235459 63 171 5.0 22.0 0.00 0.02 0.02 84 1010.0
20190419234959 63 226 12.0 22.0 0.00 0.02 0.02 85 1009.9
20190419234500 63 191 6.0 19.0 0.00 0.02 0.02 85 1009.9
20190419234002 63 231 6.0 26.0 0.00 0.02 0.02 85 1009.9
20190419233458 63 211 5.0 26.0 0.00 0.02 0.02 85 1009.8
20190419233003 63 200 7.0 21.0 0.00 0.02 0.02 85 1009.8
20190419232501 63 167 7.0 31.0 0.00 0.02 0.02 85 1009.7
20190419232002 63 192 9.0 31.0 0.00 0.02 0.02 85 1009.7
20190419231500 63 202 16.0 31.0 0.00 0.02 0.02 85 1009.7
20190419231005 63 178 8.0 25.0 0.00 0.02 0.02 85 1009.6
20190419230500 63 186 7.0 22.0 0.00 0.02 0.02 85 1009.6
20190419230003 63 144 5.0 26.0 0.00 0.02 0.02 85 1009.4
20190419225459 64 189 12.0 26.0 0.00 0.02 0.02 85 1009.4
20190419225002 64 211 12.0 23.0 0.00 0.02 0.02 85 1009.4
20190419224501 64 211 4.0 27.0 0.00 0.02 0.02 85 1009.5
20190419224000 64 194 8.0 27.0 0.00 0.02 0.02 85 1009.5
20190419223459 64 322 12.0 22.0 0.00 0.02 0.02 85 1009.5
20190419223002 64 153 2.0 22.0 0.00 0.02 0.02 85 1009.4
20190419222500 64 221 4.0 23.0 0.00 0.02 0.02 85 1009.6
20190419222000 64 206 12.0 23.0 0.00 0.02 0.02 85 1009.6
20190419221501 64 232 6.0 20.0 0.00 0.02 0.02 85 1009.5
20190419221003 64 219 10.0 22.0 0.00 0.02 0.02 85 1009.5
20190419220459 64 200 9.0 22.0 0.00 0.02 0.02 86 1009.4
20190419220004 64 167 8.0 22.0 0.00 0.02 0.02 86 1009.5
20190419215459 64 182 13.0 18.0 0.00 0.02 0.02 86 1009.5
20190419215001 64 194 8.0 19.0 0.00 0.02 0.02 86 1009.5
20190419214459 64 208 5.0 19.0 0.00 0.02 0.02 85 1009.4
20190419214004 64 193 11.0 19.0 0.00 0.02 0.02 85 1009.4
20190419213500 64 200 9.0 21.0 0.00 0.02 0.02 85 1009.6
20190419213000 64 148 7.0 23.0 0.00 0.02 0.02 86 1009.5
20190419212459 64 200 13.0 23.0 0.00 0.02 0.02 86 1009.4
20190419212002 64 127 5.0 19.0 0.01 0.02 0.02 86 1009.4
20190419211500 64 203 11.0 18.0 0.01 0.02 0.02 85 1009.2
20190419211001 64 203 8.0 22.0 0.02 0.02 0.02 85 1009.2
20190419210459 64 198 7.0 22.0 0.02 0.02 0.02 85 1009.4
20190419210002 64 260 7.0 20.0 0.02 0.02 0.02 85 1009.3
20190419205459 64 279 14.0 16.0 0.02 0.02 0.02 85 1009.4
20190419205002 63 171 2.0 16.0 0.02 0.02 0.02 85 1009.3
20190419204501 63 242 7.0 16.0 0.02 0.02 0.02 85 1009.4
20190419204001 64 200 9.0 20.0 0.02 0.02 0.02 84 1009.3
20190419203500 64 219 8.0 20.0 0.02 0.02 0.02 84 1009.2
20190419203004 64 207 13.0 20.0 0.02 0.02 0.02 84 1009.2
20190419202501 64 206 6.0 20.0 0.02 0.02 0.02 84 1009.4
20190419202001 64 160 7.0 28.0 0.01 0.01 0.01 83 1009.2
20190419201500 64 126 7.0 28.0 0.01 0.01 0.01 82 1009.3
20190419201000 64 169 9.0 32.0 0.00 0.00 0.00 82 1009.3
20190419200459 65 191 10.0 32.0 0.00 0.00 0.00 81 1009.1
20190419200002 65 249 6.0 32.0 0.00 0.00 0.00 80 1009.4
20190419195500 65 232 11.0 26.0 0.00 0.00 0.00 80 1009.3
20190419195002 65 308 9.0 25.0 0.00 0.00 0.00 80 1009.2
20190419194501 66 200 10.0 26.0 0.00 0.00 0.00 80 1009.3
20190419194001 66 173 4.0 26.0 0.00 0.00 0.00 79 1009.2
20190419193459 65 217 14.0 30.0 0.00 0.00 0.00 79 1009.2
20190419193000 66 218 13.0 30.0 0.00 0.00 0.00 79 1009.5
20190419192500 66 163 13.0 30.0 0.00 0.00 0.00 78 1009.3
20190419192001 66 203 14.0 21.0 0.00 0.00 0.00 78 1009.3
20190419191459 67 160 5.0 21.0 0.00 0.00 0.00 77 1009.3
20190419191000 67 246 9.0 22.0 0.00 0.00 0.00 78 1009.2
20190419190500 67 206 13.0 22.0 0.00 0.00 0.00 77 1009.1
20190419185959 67 196 13.0 22.0 0.00 0.00 0.00 77 1009.3
20190419185500 67 192 15.0 21.0 0.00 0.00 0.00 77 1009.1
20190419185000 67 211 2.0 19.0 0.00 0.00 0.00 77 1009.2
20190419184458 68 221 2.0 20.0 0.00 0.00 0.00 77 1009.0
20190419184000 68 213 10.0 21.0 0.00 0.00 0.00 76 1009.1
20190419183458 68 167 10.0 21.0 0.00 0.00 0.00 76 1009.1
20190419183000 68 186 10.0 19.0 0.00 0.00 0.00 76 1009.0
20190419182500 68 220 12.0 19.0 0.00 0.00 0.00 76 1009.2
20190419182000 68 214 9.0 19.0 0.00 0.00 0.00 75 1009.2
20190419181500 68 162 9.0 24.0 0.00 0.00 0.00 75 1009.1
20190419180959 68 277 10.0 30.0 0.00 0.00 0.00 75 1009.2
20190419180457 68 201 10.0 30.0 0.00 0.00 0.00 75 1009.2
20190419180001 69 131 8.0 30.0 0.00 0.00 0.00 75 1009.1
20190419175500 69 214 6.0 32.0 0.00 0.00 0.00 75 1009.3
20190419174959 69 257 6.0 32.0 0.00 0.00 0.00 75 1009.2
20190419174500 69 174 10.0 29.0 0.00 0.00 0.00 75 1009.2
20190419174001 69 117 5.0 29.0 0.00 0.00 0.00 75 1009.4
20190419173500 68 10 7.0 31.0 0.00 0.00 0.00 76 1009.3
20190419173001 68 167 7.0 34.0 0.00 0.00 0.00 76 1009.3
20190419172500 69 312 8.0 34.0 0.00 0.00 0.00 75 1009.3
20190419171958 69 186 11.0 34.0 0.00 0.00 0.00 74 1009.5
20190419171458 70 161 12.0 33.0 0.00 0.00 0.00 74 1009.5
20190419171002 70 223 10.0 29.0 0.00 0.00 0.00 73 1009.4
20190419170458 70 214 12.0 29.0 0.00 0.00 0.00 72 1009.4
20190419165959 70 191 6.0 25.0 0.00 0.00 0.00 72 1009.5
20190419165501 71 284 8.0 27.0 0.00 0.00 0.00 71 1009.4
20190419165000 71 140 13.0 29.0 0.00 0.00 0.00 70 1009.2
20190419164500 71 229 15.0 29.0 0.00 0.00 0.00 69 1009.4
20190419164001 72 240 14.0 26.0 0.00 0.00 0.00 70 1009.4
20190419163458 71 160 15.0 27.0 0.00 0.00 0.00 70 1009.3
20190419163000 70 213 12.0 28.0 0.00 0.00 0.00 72 1009.4
20190419162459 70 208 23.0 28.0 0.00 0.00 0.00 72 1009.5
20190419162000 69 228 10.0 28.0 0.00 0.00 0.00 73 1009.5
20190419161500 69 185 6.0 26.0 0.00 0.00 0.00 73 1009.6
20190419161000 69 201 12.0 25.0 0.00 0.00 0.00 73 1009.6
20190419160500 69 189 12.0 28.0 0.00 0.00 0.00 73 1009.7
20190419160000 70 224 13.0 28.0 0.00 0.00 0.00 73 1009.4
20190419155500 70 236 14.0 39.0 0.00 0.00 0.00 72 1009.6
20190419155000 70 197 8.0 39.0 0.00 0.00 0.00 72 1009.5
20190419154458 70 209 19.0 38.0 0.00 0.00 0.00 72 1009.6
20190419154000 69 198 6.0 38.0 0.00 0.00 0.00 72 1009.6
20190419153459 69 198 9.0 25.0 0.00 0.00 0.00 73 1009.6
20190419152959 68 187 12.0 25.0 0.00 0.00 0.00 74 1009.6
20190419152457 68 216 8.0 22.0 0.00 0.00 0.00 73 1009.7
20190419151958 68 258 5.0 22.0 0.00 0.00 0.00 73 1009.8
20190419151459 68 171 22.0 22.0 0.00 0.00 0.00 74 1009.8
20190419150959 68 217 16.0 24.0 0.00 0.00 0.00 73 1009.8
20190419150459 69 193 5.0 26.0 0.00 0.00 0.00 73 1009.7
20190419150001 69 275 5.0 34.0 0.00 0.00 0.00 73 1009.8
20190419145458 68 219 14.0 34.0 0.00 0.00 0.00 72 1009.8
20190419144958 69 220 8.0 30.0 0.00 0.00 0.00 72 1009.8
20190419144502 69 219 14.0 30.0 0.00 0.00 0.00 72 1009.8
20190419144000 69 194 12.0 26.0 0.00 0.00 0.00 72 1009.8
20190419143459 69 182 15.0 26.0 0.00 0.00 0.00 73 1009.6
20190419142959 70 173 11.0 26.0 0.00 0.00 0.00 73 1009.5
20190419142459 69 183 5.0 25.0 0.00 0.00 0.00 74 1009.6
20190419141959 68 236 14.0 25.0 0.00 0.00 0.00 74 1009.5
20190419141457 68 184 7.0 24.0 0.00 0.00 0.00 77 1009.6
20190419140959 66 239 13.0 32.0 0.00 0.00 0.00 77 1009.6
20190419140500 66 178 4.0 32.0 0.00 0.00 0.00 78 1009.7
20190419140000 66 162 5.0 27.0 0.00 0.00 0.00 78 1009.8
20190419135500 65 175 10.0 27.0 0.00 0.00 0.00 78 1009.7
20190419135000 65 232 19.0 23.0 0.00 0.00 0.00 78 1009.5
20190419134500 65 125 6.0 23.0 0.00 0.00 0.00 79 1009.8
20190419133958 65 210 16.0 23.0 0.00 0.00 0.00 78 1009.8
20190419133459 65 228 6.0 23.0 0.00 0.00 0.00 78 1009.7
20190419133000 65 211 12.0 23.0 0.00 0.00 0.00 78 1009.6
20190419132458 65 222 19.0 23.0 0.00 0.00 0.00 77 1009.6
20190419131959 66 182 9.0 22.0 0.00 0.00 0.00 77 1009.5
20190419131458 66 270 8.0 22.0 0.00 0.00 0.00 77 1009.5
20190419131003 66 173 12.0 24.0 0.00 0.00 0.00 77 1009.4
20190419130501 66 192 8.0 24.0 0.00 0.00 0.00 76 1009.4
20190419130001 66 210 10.0 24.0 0.00 0.00 0.00 75 1009.6
20190419125459 66 121 16.0 24.0 0.00 0.00 0.00 75 1009.6
20190419125000 66 260 4.0 27.0 0.00 0.00 0.00 76 1009.5
20190419124458 66 221 10.0 27.0 0.00 0.00 0.00 76 1009.7
20190419124000 65 151 3.0 27.0 0.00 0.00 0.00 76 1009.7
20190419123458 65 195 12.0 28.0 0.00 0.00 0.00 76 1009.8
20190419123000 65 203 6.0 28.0 0.00 0.00 0.00 77 1009.7
20190419122500 65 210 11.0 25.0 0.00 0.00 0.00 77 1009.7
20190419122001 64 194 8.0 24.0 0.00 0.00 0.00 77 1009.7
20190419121459 64 192 13.0 24.0 0.00 0.00 0.00 78 1009.7
20190419120959 64 287 5.0 27.0 0.00 0.00 0.00 78 1009.5
20190419120459 64 221 9.0 27.0 0.00 0.00 0.00 79 1009.7
20190419120000 63 240 8.0 25.0 0.00 0.00 0.00 79 1009.6
20190419115458 63 211 7.0 24.0 0.00 0.00 0.00 80 1009.6
20190419115001 62 165 13.0 26.0 0.00 0.00 0.00 80 1009.7
20190419114500 62 250 23.0 26.0 0.00 0.00 0.00 80 1009.6
20190419114001 62 160 13.0 25.0 0.00 0.00 0.00 80 1009.5
20190419113459 62 241 15.0 24.0 0.00 0.00 0.00 80 1009.6
20190419112958 62 222 11.0 26.0 0.00 0.00 0.00 81 1009.5
20190419112459 62 220 2.0 26.0 0.00 0.00 0.00 81 1009.4
20190419112001 62 198 18.0 27.0 0.00 0.00 0.00 81 1009.5
20190419111458 62 180 8.0 32.0 0.00 0.00 0.00 82 1009.6
20190419111001 62 148 11.0 32.0 0.00 0.00 0.00 82 1009.6
20190419110459 62 205 23.0 29.0 0.00 0.00 0.00 82 1009.7
20190419110001 62 207 14.0 29.0 0.00 0.00 0.00 82 1009.8
20190419105457 62 224 13.0 29.0 0.00 0.00 0.00 82 1009.9
20190419104959 62 55 7.0 26.0 0.00 0.00 0.00 83 1009.9
20190419104459 62 232 6.0 25.0 0.00 0.00 0.00 83 1009.9
20190419104001 62 180 10.0 25.0 0.00 0.00 0.00 83 1009.8
20190419103459 62 199 15.0 29.0 0.00 0.00 0.00 83 1009.8
20190419103000 62 187 22.0 29.0 0.00 0.00 0.00 83 1009.7
20190419102500 62 269 6.0 27.0 0.00 0.00 0.00 84 1009.9
20190419102001 62 134 3.0 30.0 0.00 0.00 0.00 84 1009.9
20190419101459 62 204 12.0 30.0 0.00 0.00 0.00 84 1009.8
20190419100959 62 183 14.0 28.0 0.00 0.00 0.00 84 1009.7
20190419100457 62 234 15.0 30.0 0.00 0.00 0.00 84 1009.8
20190419100000 62 179 8.0 30.0 0.00 0.00 0.00 85 1009.8
20190419095500 61 242 10.0 29.0 0.00 0.00 0.00 85 1009.8
20190419095001 61 173 14.0 27.0 0.00 0.00 0.00 85 1009.7
20190419094500 61 51 2.0 29.0 0.00 0.00 0.00 85 1009.8
20190419094003 61 259 5.0 29.0 0.00 0.00 0.00 85 1009.7
20190419093458 61 234 7.0 33.0 0.00 0.00 0.00 85 1009.8
20190419092959 61 219 16.0 36.0 0.00 0.00 0.00 85 1009.6
20190419092500 61 217 5.0 36.0 0.00 0.00 0.00 86 1009.6
20190419092000 61 216 13.0 26.0 0.00 0.00 0.00 86 1009.7
20190419091459 61 197 6.0 26.0 0.00 0.00 0.00 86 1009.8
20190419091000 61 222 19.0 24.0 0.00 0.00 0.00 86 1009.8
20190419090458 61 199 8.0 24.0 0.00 0.00 0.00 86 1009.8
20190419090000 60 270 10.0 24.0 0.00 0.00 0.00 86 1009.7
20190419085459 60 306 16.0 31.0 0.00 0.00 0.00 86 1009.8
20190419085001 60 174 1.0 31.0 0.00 0.00 0.00 86 1009.7
20190419084459 60 134 3.0 27.0 0.00 0.00 0.00 86 1009.8
20190419084000 60 176 19.0 27.0 0.00 0.00 0.00 86 1009.6
20190419083500 60 227 27.0 27.0 0.00 0.00 0.00 85 1009.7
20190419083008 60 200 5.0 25.0 0.00 0.00 0.00 85 1009.7
20190419082459 60 209 22.0 25.0 0.00 0.00 0.00 85 1009.9
20190419082001 60 196 21.0 25.0 0.00 0.00 0.00 85 1009.9
20190419081500 60 221 9.0 26.0 0.00 0.00 0.00 85 1010.0
20190419080959 60 109 1.0 26.0 0.00 0.00 0.00 85 1009.9
20190419080458 61 196 12.0 29.0 0.00 0.00 0.00 85 1009.9
20190419080001 61 229 12.0 33.0 0.00 0.00 0.00 85 1009.9
20190419075458 61 267 9.0 33.0 0.00 0.00 0.00 85 1010.1
20190419075001 61 144 5.0 22.0 0.00 0.00 0.00 85 1009.9
20190419074500 61 182 9.0 30.0 0.00 0.00 0.00 85 1010.1
20190419074000 61 209 18.0 30.0 0.00 0.00 0.00 85 1010.1
20190419073457 61 229 11.0 25.0 0.00 0.00 0.00 85 1010.3
20190419073001 61 263 12.0 28.0 0.00 0.00 0.00 85 1010.0
20190419072500 61 163 14.0 28.0 0.00 0.00 0.00 85 1010.2
20190419072000 61 195 7.0 24.0 0.00 0.00 0.00 85 1010.2
20190419071457 61 212 19.0 27.0 0.00 0.00 0.00 85 1010.2
20190419070959 61 218 9.0 30.0 0.00 0.00 0.00 85 1010.3